QPF
0.03 0.04 0.04 0.05 0.06 0.03 0.02 0.02 0.03 0.03 0.03 0.03 0.02 0.02 0.03 0.03 0.02 0.01 0.01 0.01 0.01 0.01 0.01 0.01 0.02 0.01 0.02 0.01 0.01 0.01 0.01 0.02 0.01 0.01 0.01 0.02 0.02 0.02 0.01 0.01 0.02 0.02 0.03
0.04 0.07 0.08 0.07 0.08 0.06 0.04 0.04 0.03 0.03 0.04 0.04 0.03 0.03 0.03 0.02 0.01 0.01 0.01 0.01 0.01 0.01 0.00 0.01 0.01 0.02 0.02 0.01 0.01 0.01 0.01 0.01 0.01 0.01 0.01 0.02 0.03 0.03 0.02 0.03 0.03 0.03 0.02
0.05 0.07 0.08 0.07 0.06 0.06 0.06 0.05 0.04 0.05 0.04 0.05 0.04 0.03 0.02 0.01 0.01 0.01 0.01 0.01 0.01 0.01 0.01 0.01 0.01 0.02 0.02 0.02 0.01 0.01 0.01 0.01 0.01 0.02 0.03 0.03 0.03 0.04 0.03 0.04 0.03 0.03 0.02
0.06 0.07 0.07 0.07 0.06 0.05 0.04 0.04 0.04 0.04 0.03 0.03 0.03 0.02 0.01 0.01 0.00 0.00 0.01 0.00 0.01 0.01 0.01 0.01 0.01 0.01 0.02 0.02 0.02 0.02 0.01 0.01 0.01 0.02 0.03 0.03 0.03 0.04 0.05 0.04 0.03 0.02 0.02
0.07 0.07 0.07 0.08 0.06 0.04 0.04 0.04 0.04 0.05 0.05 0.04 0.04 0.03 0.02 0.01 0.01 0.01 0.00 0.01 0.01 0.01 0.01 0.01 0.01 0.01 0.01 0.01 0.01 0.01 0.01 0.00 0.00 0.01 0.01 0.02 0.01 0.04 0.06 0.04 0.02 0.01 0.01
0.06 0.05 0.04 0.04 0.04 0.03 0.04 0.05 0.04 0.05 0.05 0.04 0.04 0.03 0.02 0.02 0.01 0.01 0.01 0.01 0.01 0.01 0.01 0.01 0.01 0.01 0.01 0.01 0.00 0.00 0.00 0.00 0.00 0.01 0.00 0.00 0.00 0.02 0.02 0.02 0.01 0.01 0.01
0.07 0.04 0.03 0.02 0.02 0.02 0.03 0.03 0.03 0.04 0.04 0.04 0.05 0.05 0.03 0.02 0.01 0.02 0.03 0.03 0.02 0.02 0.02 0.02 0.01 0.01 0.01 0.01 0.01 0.01 0.01 0.00 0.00 0.00 0.00 0.00 0.01 0.01 0.01 0.03 0.03 0.01 0.01
0.05 0.02 0.02 0.01 0.02 0.04 0.07 0.06 0.04 0.04 0.04 0.04 0.03 0.04 0.03 0.02 0.02 0.03 0.05 0.05 0.03 0.02 0.02 0.02 0.02 0.01 0.02 0.02 0.01 0.01 0.01 0.01 0.01 0.01 0.01 0.01 0.02 0.02 0.03 0.02 0.02 0.02 0.01
0.02 0.02 0.02 0.01 0.01 0.01 0.04 0.08 0.09 0.09 0.09 0.06 0.03 0.02 0.02 0.02 0.02 0.02 0.03 0.03 0.03 0.02 0.02 0.02 0.02 0.01 0.01 0.01 0.01 0.01 0.01 0.01 0.01 0.01 0.01 0.01 0.02 0.03 0.03 0.03 0.02 0.02 0.02
0.03 0.03 0.02 0.01 0.02 0.01 0.01 0.03 0.07 0.10 0.09 0.06 0.03 0.03 0.02 0.01 0.01 0.02 0.02 0.02 0.02 0.03 0.04 0.03 0.03 0.02 0.01 0.01 0.01 0.00 0.01 0.01 0.01 0.01 0.01 0.01 0.02 0.02 0.03 0.03 0.03 0.04 0.04
0.05 0.04 0.02 0.01 0.01 0.01 0.02 0.03 0.04 0.04 0.04 0.04 0.04 0.03 0.02 0.02 0.02 0.02 0.02 0.01 0.02 0.04 0.04 0.04 0.03 0.02 0.02 0.01 0.01 0.01 0.01 0.01 0.01 0.01 0.01 0.01 0.02 0.02 0.03 0.03 0.04 0.04 0.05
0.05 0.03 0.02 0.02 0.02 0.01 0.01 0.01 0.01 0.01 0.02 0.02 0.03 0.05 0.05 0.04 0.03 0.02 0.02 0.02 0.02 0.02 0.02 0.02 0.02 0.02 0.02 0.03 0.02 0.01 0.01 0.01 0.01 0.01 0.02 0.02 0.03 0.04 0.04 0.04 0.06 0.07 0.08
0.03 0.03 0.02 0.02 0.02 0.02 0.02 0.02 0.01 0.01 0.01 0.01 0.02 0.02 0.02 0.02 0.03 0.02 0.02 0.01 0.02 0.01 0.01 0.02 0.03 0.02 0.03 0.03 0.03 0.03 0.02 0.01 0.01 0.02 0.02 0.02 0.02 0.03 0.05 0.06 0.08 0.09 0.10
0.04 0.03 0.03 0.03 0.03 0.04 0.03 0.03 0.02 0.02 0.01 0.01 0.01 0.01 0.01 0.01 0.01 0.01 0.01 0.01 0.01 0.01 0.01 0.02 0.02 0.02 0.03 0.03 0.03 0.02 0.02 0.02 0.02 0.02 0.01 0.01 0.01 0.01 0.02 0.03 0.05 0.05 0.06
0.04 0.03 0.03 0.03 0.03 0.04 0.03 0.02 0.02 0.02 0.02 0.01 0.01 0.01 0.02 0.02 0.02 0.02 0.01 0.01 0.01 0.01 0.01 0.01 0.01 0.01 0.02 0.03 0.02 0.01 0.01 0.02 0.02 0.02 0.02 0.02 0.02 0.03 0.03 0.03 0.03 0.04 0.05
0.04 0.03 0.02 0.02 0.02 0.02 0.02 0.03 0.04 0.02 0.02 0.02 0.01 0.02 0.03 0.03 0.02 0.01 0.02 0.02 0.02 0.03 0.02 0.02 0.02 0.02 0.02 0.02 0.02 0.02 0.02 0.02 0.02 0.02 0.02 0.02 0.03 0.02 0.02 0.02 0.02 0.02 0.03
0.04 0.04 0.04 0.03 0.02 0.01 0.01 0.01 0.01 0.01 0.00 0.01 0.01 0.02 0.02 0.02 0.02 0.02 0.02 0.03 0.03 0.04 0.03 0.03 0.04 0.04 0.04 0.05 0.04 0.04 0.03 0.02 0.02 0.02 0.02 0.02 0.02 0.02 0.02 0.01 0.01 0.01 0.02
0.04 0.05 0.04 0.03 0.02 0.01 0.01 0.00 0.00 0.00 0.01 0.02 0.02 0.02 0.01 0.01 0.01 0.02 0.03 0.04 0.04 0.04 0.03 0.03 0.04 0.04 0.04 0.04 0.04 0.04 0.05 0.04 0.03 0.02 0.03 0.03 0.03 0.03 0.03 0.02 0.02 0.02 0.02
0.05 0.05 0.03 0.02 0.01 0.01 0.00 0.00 0.00 0.01 0.01 0.02 0.02 0.02 0.02 0.02 0.02 0.02 0.02 0.02 0.02 0.02 0.03 0.04 0.04 0.05 0.05 0.04 0.04 0.05 0.05 0.05 0.04 0.04 0.04 0.05 0.05 0.04 0.04 0.04 0.03 0.03 0.03
0.05 0.05 0.04 0.02 0.01 0.01 0.01 0.01 0.02 0.02 0.03 0.04 0.03 0.03 0.02 0.01 0.01 0.01 0.01 0.02 0.03 0.04 0.04 0.04 0.05 0.06 0.05 0.04 0.04 0.05 0.05 0.05 0.05 0.05 0.06 0.06 0.06 0.06 0.05 0.06 0.05 0.05 0.05
0.05 0.04 0.04 0.03 0.02 0.01 0.02 0.02 0.03 0.04 0.03 0.03 0.03 0.03 0.02 0.02 0.02 0.03 0.03 0.03 0.03 0.04 0.04 0.04 0.06 0.06 0.05 0.05 0.05 0.05 0.05 0.05 0.05 0.05 0.06 0.07 0.07 0.06 0.06 0.07 0.08 0.08 0.09
0.04 0.04 0.04 0.04 0.04 0.03 0.03 0.04 0.04 0.04 0.03 0.03 0.04 0.04 0.04 0.04 0.04 0.04 0.04 0.03 0.03 0.03 0.04 0.04 0.05 0.05 0.05 0.04 0.04 0.05 0.06 0.06 0.06 0.06 0.06 0.06 0.07 0.08 0.07 0.07 0.07 0.07 0.07
0.05 0.05 0.04 0.04 0.05 0.05 0.05 0.06 0.06 0.05 0.05 0.06 0.06 0.06 0.06 0.05 0.05 0.05 0.05 0.04 0.04 0.03 0.04 0.03 0.03 0.03 0.03 0.02 0.02 0.03 0.04 0.05 0.05 0.05 0.05 0.05 0.05 0.07 0.08 0.07 0.06 0.05 0.04
0.04 0.06 0.08 0.06 0.04 0.05 0.05 0.05 0.05 0.04 0.05 0.06 0.06 0.06 0.06 0.05 0.04 0.04 0.04 0.04 0.04 0.04 0.04 0.03 0.03 0.03 0.03 0.03 0.02 0.03 0.04 0.04 0.04 0.03 0.03 0.04 0.05 0.06 0.06 0.06 0.06 0.06 0.06
0.05 0.06 0.07 0.09 0.08 0.06 0.05 0.07 0.08 0.07 0.05 0.05 0.05 0.05 0.05 0.04 0.04 0.04 0.04 0.05 0.05 0.05 0.04 0.03 0.02 0.02 0.03 0.03 0.03 0.04 0.05 0.05 0.04 0.04 0.03 0.04 0.04 0.04 0.05 0.06 0.06 0.06 0.07
0.03 0.04 0.04 0.05 0.07 0.08 0.09 0.08 0.07 0.07 0.06 0.05 0.04 0.03 0.03 0.03 0.03 0.04 0.04 0.04 0.04 0.04 0.03 0.03 0.03 0.02 0.02 0.02 0.02 0.03 0.05 0.05 0.04 0.04 0.03 0.02 0.02 0.02 0.03 0.03 0.04 0.04 0.04
MSLP
1012.64 1013.06 1013.48 1013.87 1014.18 1014.39 1014.52 1014.57 1014.59 1014.59 1014.63 1014.73 1014.89 1015.10 1015.37 1015.66 1015.97 1016.27 1016.57 1016.85 1017.11 1017.34 1017.52 1017.66 1017.73 1017.74 1017.68 1017.55 1017.39 1017.22 1017.06 1016.93 1016.83 1016.77 1016.73 1016.68 1016.58 1016.41 1016.16 1015.82 1015.42 1014.98 1014.55
1012.75 1013.20 1013.64 1014.04 1014.37 1014.62 1014.79 1014.89 1014.95 1015.00 1015.07 1015.19 1015.35 1015.57 1015.83 1016.11 1016.42 1016.73 1017.04 1017.34 1017.61 1017.86 1018.05 1018.19 1018.26 1018.26 1018.19 1018.07 1017.91 1017.75 1017.60 1017.49 1017.41 1017.37 1017.32 1017.26 1017.14 1016.94 1016.65 1016.28 1015.83 1015.35 1014.87
1012.86 1013.35 1013.82 1014.25 1014.61 1014.89 1015.09 1015.24 1015.36 1015.46 1015.57 1015.71 1015.89 1016.10 1016.34 1016.62 1016.91 1017.21 1017.51 1017.81 1018.10 1018.35 1018.56 1018.71 1018.79 1018.80 1018.73 1018.62 1018.47 1018.31 1018.17 1018.06 1017.99 1017.93 1017.88 1017.80 1017.65 1017.43 1017.11 1016.70 1016.22 1015.71 1015.21
1012.92 1013.47 1013.98 1014.43 1014.82 1015.14 1015.39 1015.60 1015.77 1015.93 1016.09 1016.26 1016.45 1016.67 1016.90 1017.15 1017.42 1017.70 1017.99 1018.28 1018.56 1018.82 1019.04 1019.20 1019.29 1019.31 1019.25 1019.14 1019.00 1018.85 1018.71 1018.59 1018.50 1018.43 1018.36 1018.25 1018.09 1017.84 1017.50 1017.08 1016.60 1016.08 1015.57
1012.92 1013.52 1014.07 1014.56 1014.98 1015.34 1015.64 1015.90 1016.14 1016.36 1016.58 1016.80 1017.02 1017.24 1017.47 1017.70 1017.94 1018.19 1018.45 1018.72 1018.98 1019.24 1019.45 1019.62 1019.72 1019.75 1019.71 1019.61 1019.47 1019.31 1019.16 1019.03 1018.93 1018.83 1018.74 1018.61 1018.42 1018.17 1017.83 1017.42 1016.95 1016.45 1015.95
1012.86 1013.50 1014.09 1014.61 1015.06 1015.45 1015.80 1016.13 1016.43 1016.72 1017.01 1017.28 1017.55 1017.79 1018.02 1018.24 1018.45 1018.67 1018.89 1019.13 1019.37 1019.60 1019.80 1019.97 1020.07 1020.10 1020.07 1019.97 1019.83 1019.67 1019.51 1019.36 1019.23 1019.12 1019.00 1018.86 1018.67 1018.42 1018.09 1017.71 1017.27 1016.80 1016.33
1012.78 1013.45 1014.05 1014.59 1015.06 1015.49 1015.89 1016.27 1016.64 1017.01 1017.37 1017.71 1018.02 1018.29 1018.53 1018.74 1018.93 1019.11 1019.30 1019.50 1019.70 1019.90 1020.08 1020.23 1020.33 1020.36 1020.32 1020.22 1020.08 1019.91 1019.74 1019.58 1019.43 1019.30 1019.17 1019.02 1018.84 1018.60 1018.31 1017.95 1017.55 1017.11 1016.67
1012.72 1013.40 1014.00 1014.54 1015.03 1015.48 1015.92 1016.35 1016.79 1017.23 1017.66 1018.06 1018.41 1018.72 1018.97 1019.18 1019.35 1019.51 1019.66 1019.81 1019.97 1020.14 1020.29 1020.42 1020.49 1020.51 1020.47 1020.37 1020.22 1020.04 1019.86 1019.69 1019.53 1019.40 1019.26 1019.12 1018.95 1018.73 1018.47 1018.15 1017.78 1017.38 1016.96
1012.73 1013.39 1013.98 1014.52 1015.00 1015.47 1015.94 1016.41 1016.91 1017.40 1017.89 1018.34 1018.74 1019.07 1019.34 1019.54 1019.70 1019.83 1019.94 1020.06 1020.18 1020.31 1020.43 1020.53 1020.59 1020.59 1020.54 1020.43 1020.27 1020.10 1019.91 1019.73 1019.58 1019.44 1019.31 1019.17 1019.02 1018.83 1018.59 1018.29 1017.95 1017.57 1017.16
1012.84 1013.47 1014.03 1014.54 1015.02 1015.50 1015.98 1016.49 1017.02 1017.56 1018.08 1018.57 1018.99 1019.34 1019.61 1019.81 1019.96 1020.06 1020.15 1020.24 1020.33 1020.42 1020.51 1020.58 1020.62 1020.61 1020.55 1020.43 1020.27 1020.09 1019.91 1019.74 1019.58 1019.44 1019.32 1019.20 1019.06 1018.88 1018.66 1018.38 1018.05 1017.68 1017.27
1013.04 1013.62 1014.15 1014.64 1015.11 1015.59 1016.08 1016.61 1017.16 1017.71 1018.25 1018.75 1019.18 1019.53 1019.80 1019.98 1020.11 1020.20 1020.27 1020.33 1020.40 1020.48 1020.55 1020.60 1020.62 1020.59 1020.52 1020.40 1020.24 1020.06 1019.88 1019.70 1019.55 1019.42 1019.31 1019.19 1019.06 1018.90 1018.68 1018.41 1018.09 1017.71 1017.29
1013.31 1013.85 1014.34 1014.80 1015.26 1015.74 1016.24 1016.77 1017.32 1017.87 1018.40 1018.89 1019.30 1019.63 1019.88 1020.05 1020.17 1020.24 1020.30 1020.36 1020.42 1020.48 1020.54 1020.58 1020.59 1020.56 1020.47 1020.35 1020.18 1020.00 1019.82 1019.64 1019.49 1019.37 1019.26 1019.15 1019.02 1018.87 1018.66 1018.39 1018.06 1017.68 1017.26
1013.61 1014.10 1014.56 1015.01 1015.46 1015.93 1016.43 1016.95 1017.49 1018.02 1018.53 1018.98 1019.36 1019.66 1019.88 1020.03 1020.13 1020.20 1020.26 1020.31 1020.38 1020.44 1020.50 1020.54 1020.54 1020.50 1020.41 1020.27 1020.10 1019.91 1019.73 1019.55 1019.40 1019.27 1019.16 1019.06 1018.94 1018.79 1018.58 1018.32 1017.99 1017.61 1017.18
1013.90 1014.34 1014.78 1015.21 1015.66 1016.12 1016.62 1017.13 1017.64 1018.14 1018.60 1019.01 1019.34 1019.60 1019.79 1019.93 1020.02 1020.09 1020.15 1020.22 1020.29 1020.37 1020.44 1020.48 1020.48 1020.43 1020.33 1020.18 1019.99 1019.79 1019.59 1019.41 1019.25 1019.12 1019.01 1018.91 1018.80 1018.66 1018.46 1018.21 1017.89 1017.52 1017.10
1014.13 1014.54 1014.95 1015.37 1015.81 1016.28 1016.77 1017.26 1017.75 1018.20 1018.62 1018.98 1019.26 1019.48 1019.64 1019.75 1019.84 1019.91 1019.99 1020.08 1020.17 1020.27 1020.34 1020.38 1020.38 1020.32 1020.20 1020.03 1019.83 1019.61 1019.40 1019.20 1019.04 1018.91 1018.80 1018.70 1018.60 1018.47 1018.30 1018.07 1017.77 1017.42 1017.01
1014.28 1014.66 1015.05 1015.46 1015.90 1016.36 1016.84 1017.31 1017.77 1018.19 1018.55 1018.86 1019.10 1019.28 1019.41 1019.52 1019.60 1019.69 1019.79 1019.89 1020.01 1020.11 1020.19 1020.23 1020.22 1020.15 1020.01 1019.82 1019.60 1019.36 1019.13 1018.92 1018.75 1018.61 1018.51 1018.42 1018.34 1018.23 1018.08 1017.88 1017.62 1017.30 1016.93
1014.35 1014.69 1015.07 1015.47 1015.91 1016.36 1016.82 1017.27 1017.69 1018.07 1018.39 1018.66 1018.86 1019.01 1019.13 1019.22 1019.31 1019.41 1019.52 1019.65 1019.77 1019.89 1019.97 1020.00 1019.97 1019.88 1019.72 1019.51 1019.26 1019.01 1018.76 1018.54 1018.36 1018.23 1018.13 1018.06 1017.99 1017.91 1017.80 1017.64 1017.42 1017.14 1016.81
1014.35 1014.67 1015.02 1015.41 1015.82 1016.26 1016.70 1017.12 1017.51 1017.85 1018.14 1018.37 1018.54 1018.67 1018.77 1018.87 1018.96 1019.07 1019.19 1019.32 1019.44 1019.55 1019.62 1019.64 1019.59 1019.47 1019.29 1019.06 1018.80 1018.52 1018.27 1018.05 1017.87 1017.74 1017.65 1017.60 1017.56 1017.51 1017.43 1017.31 1017.13 1016.90 1016.60
1014.32 1014.60 1014.92 1015.29 1015.68 1016.09 1016.50 1016.89 1017.24 1017.55 1017.80 1017.99 1018.14 1018.25 1018.34 1018.43 1018.53 1018.63 1018.75 1018.87 1018.99 1019.08 1019.13 1019.12 1019.05 1018.90 1018.70 1018.45 1018.18 1017.90 1017.65 1017.43 1017.25 1017.13 1017.06 1017.02 1017.01 1016.98 1016.94 1016.85 1016.72 1016.53 1016.28
1014.27 1014.52 1014.82 1015.15 1015.51 1015.88 1016.25 1016.60 1016.91 1017.17 1017.38 1017.54 1017.67 1017.76 1017.84 1017.92 1018.00 1018.09 1018.19 1018.30 1018.39 1018.45 1018.46 1018.43 1018.33 1018.16 1017.95 1017.69 1017.41 1017.14 1016.89 1016.68 1016.52 1016.41 1016.35 1016.33 1016.33 1016.32 1016.30 1016.25 1016.15 1016.00 1015.79
1014.26 1014.48 1014.74 1015.03 1015.34 1015.67 1015.98 1016.28 1016.53 1016.75 1016.92 1017.04 1017.14 1017.21 1017.26 1017.32 1017.38 1017.45 1017.52 1017.59 1017.65 1017.67 1017.65 1017.58 1017.45 1017.27 1017.05 1016.79 1016.53 1016.27 1016.03 1015.84 1015.69 1015.59 1015.54 1015.52 1015.53 1015.54 1015.53 1015.50 1015.43 1015.31 1015.14
1014.30 1014.49 1014.71 1014.95 1015.22 1015.48 1015.73 1015.96 1016.15 1016.31 1016.43 1016.52 1016.57 1016.61 1016.64 1016.67 1016.70 1016.74 1016.77 1016.80 1016.81 1016.79 1016.74 1016.64 1016.49 1016.31 1016.08 1015.84 1015.58 1015.34 1015.13 1014.94 1014.81 1014.71 1014.66 1014.64 1014.64 1014.65 1014.65 1014.63 1014.58 1014.49 1014.35
1014.40 1014.56 1014.75 1014.94 1015.14 1015.34 1015.52 1015.67 1015.80 1015.89 1015.96 1016.00 1016.01 1016.02 1016.02 1016.02 1016.01 1016.01 1016.01 1016.00 1015.97 1015.92 1015.83 1015.71 1015.55 1015.36 1015.15 1014.91 1014.68 1014.46 1014.25 1014.08 1013.95 1013.85 1013.78 1013.74 1013.72 1013.72 1013.71 1013.68 1013.64 1013.57 1013.47
1014.56 1014.70 1014.84 1014.99 1015.13 1015.25 1015.35 1015.43 1015.49 1015.52 1015.53 1015.53 1015.50 1015.48 1015.45 1015.42 1015.39 1015.36 1015.33 1015.28 1015.22 1015.14 1015.04 1014.90 1014.74 1014.56 1014.35 1014.14 1013.92 1013.71 1013.52 1013.34 1013.19 1013.07 1012.97 1012.90 1012.85 1012.81 1012.77 1012.73 1012.69 1012.63 1012.55
1014.76 1014.87 1014.98 1015.07 1015.14 1015.19 1015.23 1015.24 1015.23 1015.21 1015.17 1015.13 1015.08 1015.04 1014.99 1014.95 1014.90 1014.86 1014.81 1014.74 1014.67 1014.58 1014.47 1014.33 1014.17 1014.00 1013.81 1013.61 1013.40 1013.19 1012.98 1012.79 1012.61 1012.45 1012.30 1012.18 1012.07 1011.98 1011.91 1011.84 1011.78 1011.72 1011.65
1014.94 1015.03 1015.10 1015.14 1015.15 1015.15 1015.12 1015.07 1015.01 1014.95 1014.89 1014.83 1014.77 1014.73 1014.68 1014.64 1014.60 1014.56 1014.51 1014.45 1014.38 1014.29 1014.18 1014.05 1013.91 1013.74 1013.56 1013.36 1013.15 1012.93 1012.70 1012.47 1012.24 1012.02 1011.81 1011.62 1011.45 1011.29 1011.16 1011.06 1010.97 1010.89 1010.81
Thickness
5776 5773 5771 5768 5766 5763 5761 5759 5758 5756 5754 5752 5752 5750 5749 5748 5747 5745 5743 5742 5740 5738 5736 5734 5732 5731 5728 5726 5723 5720 5716 5713 5707 5704 5702 5700 5697 5696 5694 5692 5690 5688 5686
5775 5772 5769 5767 5764 5762 5760 5759 5758 5756 5753 5751 5750 5749 5748 5747 5746 5744 5742 5740 5738 5736 5735 5733 5730 5729 5726 5724 5721 5718 5714 5711 5707 5702 5699 5696 5694 5692 5690 5688 5686 5684 5682
5775 5771 5768 5766 5763 5761 5760 5759 5757 5755 5752 5750 5749 5747 5746 5745 5744 5743 5741 5739 5737 5735 5733 5731 5729 5727 5723 5721 5718 5715 5712 5709 5705 5701 5696 5693 5690 5688 5685 5683 5681 5679 5678
5773 5769 5767 5764 5762 5760 5758 5757 5755 5753 5751 5749 5748 5746 5745 5744 5743 5741 5739 5737 5735 5733 5731 5729 5727 5725 5722 5719 5716 5712 5708 5705 5701 5697 5693 5689 5686 5684 5681 5678 5676 5675 5673
5772 5768 5766 5764 5761 5758 5756 5753 5751 5750 5749 5748 5746 5745 5743 5741 5740 5739 5737 5735 5732 5730 5728 5726 5724 5723 5720 5718 5714 5710 5706 5701 5697 5693 5689 5686 5682 5679 5677 5674 5672 5669 5667
5771 5768 5765 5762 5759 5757 5754 5751 5749 5747 5746 5745 5743 5742 5740 5739 5738 5736 5734 5732 5729 5727 5725 5723 5721 5719 5717 5715 5712 5709 5705 5700 5695 5690 5686 5683 5680 5677 5674 5671 5667 5664 5663
5771 5767 5764 5761 5757 5754 5753 5749 5746 5744 5742 5741 5740 5739 5737 5735 5734 5732 5731 5729 5726 5724 5722 5719 5718 5716 5714 5711 5708 5704 5701 5698 5695 5690 5685 5682 5679 5676 5672 5668 5664 5662 5660
5769 5766 5763 5759 5755 5752 5749 5746 5743 5740 5738 5737 5735 5734 5733 5732 5730 5728 5727 5725 5722 5720 5718 5716 5713 5711 5709 5706 5703 5699 5696 5694 5690 5687 5684 5681 5678 5675 5671 5667 5663 5659 5656
5766 5764 5762 5758 5753 5749 5746 5743 5740 5737 5735 5733 5732 5730 5728 5727 5725 5724 5722 5720 5717 5715 5714 5712 5710 5707 5704 5701 5697 5694 5691 5689 5686 5683 5680 5678 5675 5671 5667 5662 5658 5654 5651
5765 5763 5760 5756 5752 5747 5744 5741 5738 5735 5732 5730 5728 5726 5724 5722 5721 5719 5717 5715 5712 5710 5708 5707 5704 5702 5699 5695 5692 5688 5685 5683 5681 5678 5675 5673 5670 5666 5663 5659 5655 5650 5647
5762 5759 5756 5753 5749 5745 5741 5738 5735 5731 5728 5725 5723 5721 5719 5717 5715 5713 5711 5709 5707 5705 5703 5701 5699 5695 5692 5689 5686 5684 5681 5678 5675 5672 5670 5667 5664 5661 5657 5654 5650 5647 5643
5756 5753 5750 5748 5746 5742 5737 5734 5730 5727 5723 5720 5717 5715 5713 5712 5710 5708 5706 5704 5702 5699 5697 5695 5693 5689 5686 5683 5680 5678 5675 5671 5668 5665 5663 5660 5658 5655 5652 5649 5646 5643 5640
5749 5747 5744 5742 5739 5737 5733 5729 5725 5722 5719 5716 5713 5711 5709 5707 5706 5704 5701 5699 5696 5693 5691 5689 5686 5683 5679 5676 5674 5671 5668 5664 5661 5658 5656 5654 5652 5649 5646 5643 5641 5637 5634
5743 5740 5737 5735 5732 5729 5727 5724 5720 5717 5714 5712 5709 5706 5704 5702 5700 5699 5696 5693 5690 5687 5684 5681 5678 5675 5672 5669 5666 5664 5660 5658 5655 5652 5650 5647 5645 5642 5639 5636 5633 5631 5628
5736 5733 5730 5727 5725 5722 5719 5717 5715 5714 5712 5709 5706 5703 5699 5697 5697 5694 5690 5688 5684 5681 5677 5673 5670 5667 5664 5661 5659 5656 5653 5650 5647 5644 5641 5639 5637 5634 5631 5629 5625 5623 5621
5728 5725 5722 5719 5717 5715 5712 5709 5707 5706 5705 5703 5701 5698 5696 5693 5691 5687 5684 5681 5677 5674 5670 5666 5663 5660 5657 5654 5652 5650 5647 5644 5641 5638 5635 5632 5630 5627 5624 5621 5618 5615 5614
5720 5718 5715 5712 5710 5707 5705 5701 5698 5697 5697 5695 5693 5691 5688 5686 5683 5681 5678 5674 5669 5666 5662 5660 5657 5654 5651 5648 5646 5643 5640 5638 5634 5631 5628 5625 5622 5619 5617 5614 5611 5608 5606
5712 5711 5709 5706 5703 5700 5698 5695 5693 5691 5688 5687 5685 5683 5681 5678 5675 5672 5669 5665 5661 5657 5655 5653 5651 5648 5645 5642 5639 5636 5634 5631 5627 5623 5620 5617 5614 5612 5609 5607 5604 5601 5600
5703 5702 5699 5697 5695 5693 5691 5689 5686 5684 5682 5679 5677 5675 5672 5669 5666 5663 5659 5657 5655 5652 5649 5646 5643 5640 5637 5635 5632 5629 5626 5623 5619 5616 5612 5609 5607 5605 5602 5600 5598 5594 5591
5693 5693 5691 5688 5687 5685 5683 5681 5678 5676 5675 5672 5670 5667 5664 5660 5658 5654 5651 5649 5647 5645 5643 5639 5637 5633 5630 5628 5625 5621 5618 5615 5611 5607 5604 5602 5600 5597 5595 5593 5590 5588 5586
5685 5684 5683 5681 5679 5678 5676 5674 5672 5669 5667 5665 5662 5660 5656 5653 5651 5648 5645 5641 5639 5637 5635 5633 5630 5627 5624 5620 5617 5614 5611 5607 5604 5600 5597 5594 5592 5589 5587 5585 5583 5581 5579
5676 5675 5674 5672 5671 5669 5667 5665 5663 5661 5659 5657 5654 5651 5647 5646 5643 5640 5637 5634 5632 5629 5627 5624 5622 5619 5617 5613 5610 5606 5603 5599 5596 5593 5590 5587 5584 5582 5580 5577 5575 5573 5571
5667 5666 5664 5663 5662 5660 5658 5656 5655 5653 5651 5649 5646 5643 5640 5637 5636 5633 5630 5627 5624 5620 5618 5616 5614 5612 5609 5606 5602 5599 5596 5592 5589 5586 5583 5580 5578 5576 5573 5570 5568 5566 5564
5659 5657 5656 5654 5652 5651 5650 5649 5647 5645 5643 5641 5638 5636 5633 5631 5627 5624 5621 5619 5616 5613 5610 5608 5606 5605 5602 5599 5596 5593 5589 5586 5582 5580 5577 5574 5572 5570 5567 5564 5561 5559 5557
5650 5649 5647 5646 5644 5643 5642 5640 5638 5636 5635 5633 5631 5628 5626 5623 5620 5616 5613 5610 5608 5605 5603 5601 5599 5597 5595 5592 5589 5586 5583 5580 5576 5573 5570 5567 5565 5562 5559 5556 5554 5551 5549
5641 5640 5639 5637 5636 5634 5633 5631 5630 5628 5626 5625 5622 5620 5617 5615 5611 5608 5605 5603 5600 5598 5595 5593 5591 5589 5587 5584 5581 5578 5576 5573 5570 5566 5562 5560 5558 5555 5552 5549 5546 5544 5542